Announcement

Topics related to [Tag] plugin

Topic Tags Replies Views Last post
Sticky
Sticky: Show tags block on all pages by JanisV
plugin tags 6 6028 2015-01-08 08:04:05 by flop25
Piwigo backup by Peter de Bruin
backup plugin 7 3825 2018-11-27 16:17:29 by erAck
custom thumb Extension masonry plugin 147 38368 2018-11-11 18:58:18 by ari
Share album plugin by timparki
categories/albums error plugin private Share 0 206 2018-11-07 19:46:17 by timparki
category plugin Variables 4 277 2018-10-09 23:07:30 by ddtddt
[plugin]Advanced Menu Manager by grum  [ 1 2 3 ]
plugin 36 18644 2018-06-30 06:07:58 by IamKevio
[Plugin] Protected Albums by unclvito  [ 1 2 3 … 5 ]
password plugin Protected Albums Plugin 68 32584 2018-05-01 18:39:11 by jimmyg
categories/albums configuration plugin 0 269 2017-12-07 12:16:07 by mountwilson
[Plugin] FacebookPlug by rub  [ 1 2 3 … 8 ]
plugin 108 40948 2017-09-10 21:56:52 by Adriel1087
configuration error installation photo plugin privacy users 0 341 2017-08-25 09:12:21 by Lorenzo4web
categories/albums Extension map plugin 0 422 2017-08-06 17:35:41 by TBP
change copyrights plugin 3 990 2016-08-08 08:25:08 by tomass
migration plugin 1 904 2016-05-31 20:57:21 by plg
categories/albums disable plugin 14 2826 2016-04-13 19:26:55 by Nomad
categories/albums configuration plugin Share 2 1072 2015-08-03 13:16:40 by Maria
2.7 piwigo plugin 3 1342 2015-07-26 19:52:10 by sport
plugin WordPress 0 923 2015-07-21 18:44:24 by Hinnerk1
Advanced MetaData error metadata metadata:exif metadata:iptc plugin 14 8016 2015-04-10 12:31:54 by legramo
issues plugin theme 2 1420 2015-03-05 15:41:23 by plg
Event Cats Extension plugin 36 20733 2015-01-20 08:53:57 by r.orrison
configuration Extensions Maps&Earth metadata plugin 0 1028 2015-01-19 16:42:18 by danibo
[Plugin] ContactForm by Criss  [ 1 2 3 ]
contact form plugin 30 24366 2015-01-15 21:09:53 by Stormchaser
error Language Switch plugin 0 815 2014-12-18 20:00:01 by malachiel
hi-res images permission plugin 11 9173 2014-11-20 02:09:48 by sport
password plugin protect 1 1744 2014-10-27 10:12:11 by mistic100
configuration instagram2piwigo plugin 8 2820 2014-09-10 18:35:47 by Jibin
Flickr2Piwigo not working by seenandnotseen
Flickr Flickr2Piwigo plugin 6 2813 2014-08-19 22:59:40 by seenandnotseen
plugin 2 3512 2014-07-20 12:55:18 by matthys
plugin twitter Twitter Card 13 3822 2014-04-26 03:42:10 by umrysh
User delete photo by thijsverbeek
delete installation plugin users 5 2357 2014-02-24 19:56:23 by ddtddt
Extended Description plugin 3 1503 2014-02-07 08:40:38 by Gilles
2.1.6 community error plugin users web upload 1 2460 2014-02-05 11:46:12 by drmaemo
Extended Description plugin 2 1270 2014-01-29 03:05:44 by Pavel
plugin 6 1792 2014-01-23 16:54:51 by Pelagis
categories/albums integration plugin theme 29 7587 2013-11-26 22:18:21 by marjolein
Lightroom plug-in beta testing - invitation by alloyphoto  [ 1 2 3 … 23 ]
export Lightroom plugin 344 88254 2013-11-20 16:02:26 by alloyphoto
Tag Access Management by DavidDD
metadata:iptc plugin Tag Access Management users 3 1837 2013-10-17 14:42:21 by freanki
API embedded videos plugin 1 1321 2013-06-20 11:42:18 by mistic100
additional pages categories/albums error mobile plugin 7 4095 2013-05-27 01:10:45 by twphotouk
ApertureToPiwigo export plugin 1 1298 2013-05-10 23:16:38 by Serge
error facebookplug plugin 3 2211 2013-05-09 19:26:53 by ddtddt
contact form error plugin social buttons 8 4405 2013-05-01 17:39:10 by twphotouk
development plugin 2 1815 2013-04-09 07:59:17 by micah
plugin Tag User Tags 10 5343 2013-04-08 17:00:49 by nicolas
plugin template 1 1342 2013-03-19 16:13:56 by flop25
migration plugin sound 3 1975 2013-03-16 12:38:28 by flop25
piwecard plugin subdirectory 2 1727 2013-02-17 19:24:26 by 57jgm
plugin 2 1481 2012-12-20 23:55:49 by Valeria
batch downloader plugin 6 2644 2012-12-11 16:31:48 by blax
error Grum plugin update 5 2962 2012-11-20 12:11:26 by Gust

Board footer

Powered by FluxBB

github twitter facebook google+ newsletter Donate Piwigo.org © 2002-2018 · Contact